KB6LA Weather Reports


Display with metric or nautical units.
time (UTC)temp
F
wind
direction
speed
MPH
gust
MPH
rain 1hr
in
rain 24hr
in
rain mn
in
humidity
%
barometer
mb
20260901105021 62 341 1.0 2.0 0.00 0.00 0.00 89 1013.1
20260901104513 62 339 1.0 2.0 0.00 0.00 0.00 89 1013.1
20260901104007 62 334 1.0 2.0 0.00 0.00 0.00 89 1013.1
20260901102954 62 327 1.0 1.0 0.00 0.00 0.00 89 1013.1
20260901102447 62 317 0.0 1.0 0.00 0.00 0.00 89 1013.1
20260901101941 62 307 0.0 1.0 0.00 0.00 0.00 89 1013.1
20260901100928 62 324 0.0 2.0 0.00 0.00 0.00 89 1013.1
20260901100421 62 329 1.0 3.0 0.00 0.00 0.00 89 1013.1
20260901095409 62 343 2.0 4.0 0.00 0.00 0.00 88 1013.4
20260901094903 62 332 2.0 3.0 0.00 0.00 0.00 88 1013.4
20260901094355 62 321 2.0 3.0 0.00 0.00 0.00 88 1013.4
20260901093849 62 316 2.0 3.0 0.00 0.00 0.00 88 1013.4
20260901093343 62 317 2.0 3.0 0.00 0.00 0.00 88 1013.4
20260901092836 63 344 2.0 3.0 0.00 0.00 0.00 88 1013.1
20260901091823 62 306 0.0 2.0 0.00 0.00 0.00 88 1013.1
20260901091316 62 337 0.0 2.0 0.00 0.00 0.00 88 1013.4
20260901090810 62 318 0.0 2.0 0.00 0.00 0.00 87 1013.4
20260901090304 63 324 0.0 1.0 0.00 0.00 0.00 87 1013.4
20260901085758 63 310 0.0 1.0 0.00 0.00 0.00 87 1013.4
20260901085250 63 319 1.0 1.0 0.00 0.00 0.00 88 1013.4
20260901084744 63 320 1.0 1.0 0.00 0.00 0.00 87 1013.4
20260901084238 63 306 0.0 2.0 0.00 0.00 0.00 87 1013.4
20260901082718 63 327 1.0 3.0 0.00 0.00 0.00 87 1013.4
20260901082211 63 328 2.0 3.0 0.00 0.00 0.00 87 1013.4
20260901081705 63 306 1.0 3.0 0.00 0.00 0.00 87 1013.4
20260901081159 63 318 2.0 2.0 0.00 0.00 0.00 86 1013.4
20260901080652 63 332 1.0 3.0 0.00 0.00 0.00 87 1013.4
20260901080145 63 312 1.0 3.0 0.00 0.00 0.00 86 1013.4
20260901075639 63 320 1.0 2.0 0.00 0.00 0.00 86 1013.4
20260901075133 64 328 1.0 2.0 0.00 0.00 0.00 86 1013.4
20260901074120 64 319 1.0 2.0 0.00 0.00 0.00 86 1013.4
20260901073614 64 322 0.0 2.0 0.00 0.00 0.00 86 1013.4
20260901073107 64 343 0.0 2.0 0.00 0.00 0.00 86 1013.4
20260901072601 64 327 1.0 2.0 0.00 0.00 0.00 86 1013.4
20260901072054 64 322 1.0 2.0 0.00 0.00 0.00 86 1013.4
20260901071547 64 323 0.0 1.0 0.00 0.00 0.00 86 1013.4
20260901071041 64 322 1.0 2.0 0.00 0.00 0.00 86 1013.4
20260901070535 64 323 0.0 2.0 0.00 0.00 0.00 85 1013.4
20260901070029 64 322 1.0 1.0 0.00 0.00 0.00 85 1013.4
20260901065521 64 325 0.0 2.0 0.00 0.00 0.00 85 1013.1
20260901065015 64 319 1.0 2.0 0.00 0.00 0.00 85 1013.1
20260901064510 64 319 0.0 1.0 0.00 0.00 0.00 85 1013.1
20260901064002 64 315 1.0 1.0 0.00 0.00 0.00 85 1013.1
20260901063456 64 314 0.0 1.0 0.00 0.00 0.00 85 1013.1
20260901062949 64 317 1.0 2.0 0.00 0.00 0.00 85 1012.8
20260901061936 64 321 1.0 2.0 0.00 0.00 0.00 84 1012.8
20260901061430 65 306 0.0 3.0 0.00 0.00 0.00 84 1012.8
20260901060416 65 316 2.0 2.0 0.00 0.00 0.00 84 1012.8
20260901055910 65 319 1.0 2.0 0.00 0.00 0.00 84 1012.8
20260901055404 65 319 0.0 1.0 0.00 0.00 0.00 84 1012.8
20260901054857 65 318 0.0 1.0 0.00 0.00 0.00 84 1012.8
20260901054355 65 318 0.0 2.0 0.00 0.00 0.00 84 1012.8
20260901052831 65 322 1.0 2.0 0.00 0.00 0.00 84 1012.8
20260901052325 65 317 1.0 2.0 0.00 0.00 0.00 83 1012.8
20260901051818 65 316 1.0 2.0 0.00 0.00 0.00 83 1012.8
20260901051312 65 314 1.0 2.0 0.00 0.00 0.00 83 1012.8
20260901050259 66 333 2.0 2.0 0.00 0.00 0.00 83 1012.8
20260901045246 66 322 1.0 2.0 0.00 0.00 0.00 83 1012.8
20260901044233 67 292 1.0 2.0 0.00 0.00 0.00 84 1012.4
20260901043727 67 274 1.0 2.0 0.00 0.00 0.00 84 1012.8
20260901043219 67 255 1.0 2.0 0.00 0.00 0.00 84 1012.4
20260901042713 67 240 1.0 2.0 0.00 0.00 0.00 84 1012.4
20260901041700 67 243 1.0 1.0 0.00 0.00 0.00 84 1012.4
20260901041154 67 243 1.0 1.0 0.00 0.00 0.00 85 1012.1
20260901040140 67 244 0.0 2.0 0.00 0.00 0.00 84 1011.8
20260901035634 67 246 1.0 2.0 0.00 0.00 0.00 84 1012.1
20260901034622 67 256 1.0 2.0 0.00 0.00 0.00 84 1011.8
20260901033608 67 287 0.0 1.0 0.00 0.00 0.00 84 1011.8
20260901033102 67 246 0.0 2.0 0.00 0.00 0.00 84 1011.8
20260901032555 67 253 0.0 3.0 0.00 0.00 0.00 84 1011.8
20260901032049 67 251 2.0 3.0 0.00 0.00 0.00 84 1011.4
20260901031542 67 246 1.0 3.0 0.00 0.00 0.00 83 1011.4
20260901031035 67 254 0.0 2.0 0.00 0.00 0.00 83 1011.4
20260901030529 68 257 1.0 4.0 0.00 0.00 0.00 83 1011.4
20260901025010 68 228 4.0 8.0 0.00 0.00 0.00 83 1011.4
20260901024504 68 233 3.0 8.0 0.00 0.00 0.00 83 1011.4
20260901023957 68 260 3.0 8.0 0.00 0.00 0.00 83 1011.1
20260901022437 68 236 4.0 8.0 0.00 0.00 0.00 82 1011.4
20260901021931 68 220 2.0 11.0 0.00 0.00 0.00 82 1011.4
20260901021424 69 233 6.0 11.0 0.00 0.00 0.00 82 1011.4
20260901020412 69 221 6.0 9.0 0.00 0.00 0.00 80 1011.4
20260901015905 69 244 5.0 10.0 0.00 0.00 0.00 80 1011.4
20260901015358 70 346 4.0 10.0 0.00 0.00 0.00 80 1011.4
20260901014851 70 234 7.0 11.0 0.00 0.00 0.00 79 1011.4
20260901014345 71 242 9.0 11.0 0.00 0.00 0.00 78 1011.4
20260901013839 71 259 7.0 10.0 0.00 0.00 0.00 79 1011.4
20260901013331 71 256 5.0 10.0 0.00 0.00 0.00 78 1011.4
20260901012825 71 265 9.0 13.0 0.00 0.00 0.00 77 1011.4
20260901012319 71 230 11.0 13.0 0.00 0.00 0.00 76 1011.4
20260901011812 71 229 5.0 11.0 0.00 0.00 0.00 77 1011.4
20260901011306 71 252 4.0 11.0 0.00 0.00 0.00 77 1011.4
20260901010800 71 258 7.0 11.0 0.00 0.00 0.00 76 1011.4
20260901005746 72 212 6.0 11.0 0.00 0.00 0.00 76 1011.4
20260901005240 72 317 6.0 11.0 0.00 0.00 0.00 78 1011.8
20260901004733 72 234 6.0 11.0 0.00 0.00 0.00 76 1011.4
20260901004227 73 253 7.0 11.0 0.00 0.00 0.00 76 1011.4
20260901003720 73 262 4.0 11.0 0.00 0.00 0.00 76 1011.4
20260901003213 73 226 5.0 11.0 0.00 0.00 0.00 76 1011.4
20260901002707 73 233 9.0 14.0 0.00 0.00 0.00 76 1011.4
20260901001147 73 238 9.0 14.0 0.00 0.00 0.00 75 1011.8
20260901000641 73 251 11.0 13.0 0.00 0.00 0.00 75 1011.8
20260901000134 73 258 7.0 13.0 0.00 0.00 0.00 75 1011.8
20260831235122 73 235 5.0 13.0 0.00 0.00 0.00 76 1011.8
20260831234614 73 128 7.0 13.0 0.00 0.00 0.00 75 1011.8
20260831233602 74 224 7.0 14.0 0.00 0.00 0.00 73 1011.8
20260831233055 75 240 6.0 14.0 0.00 0.00 0.00 71 1011.8
20260831232549 75 231 11.0 14.0 0.00 0.00 0.00 68 1011.4
20260831232043 75 274 7.0 13.0 0.00 0.00 0.00 69 1011.4
20260831231029 74 259 9.0 14.0 0.00 0.00 0.00 71 1011.4
20260831230524 75 233 11.0 14.0 0.00 0.00 0.00 71 1011.4
20260831230016 74 255 9.0 14.0 0.00 0.00 0.00 71 1011.8
20260831225510 75 204 8.0 14.0 0.00 0.00 0.00 70 1011.8
20260831225003 75 251 11.0 14.0 0.00 0.00 0.00 69 1011.8
20260831224457 75 221 11.0 14.0 0.00 0.00 0.00 68 1011.8
20260831222937 76 247 10.0 13.0 0.00 0.00 0.00 62 1011.8
20260831222431 75 221 10.0 11.0 0.00 0.00 0.00 65 1011.8
20260831221924 76 230 7.0 15.0 0.00 0.00 0.00 68 1012.1
20260831221418 75 258 7.0 15.0 0.00 0.00 0.00 70 1012.1
20260831220911 75 250 8.0 15.0 0.00 0.00 0.00 71 1012.1
20260831220405 76 230 12.0 14.0 0.00 0.00 0.00 69 1012.1
20260831215858 76 243 6.0 14.0 0.00 0.00 0.00 69 1012.1
20260831215352 76 258 10.0 14.0 0.00 0.00 0.00 67 1012.1
20260831214844 76 212 9.0 13.0 0.00 0.00 0.00 67 1012.1
20260831214338 76 236 8.0 14.0 0.00 0.00 0.00 69 1012.1
20260831213832 76 234 4.0 14.0 0.00 0.00 0.00 67 1012.1
20260831213325 76 192 8.0 14.0 0.00 0.00 0.00 70 1012.4
20260831212819 76 283 2.0 13.0 0.00 0.00 0.00 72 1012.4
20260831212313 77 227 7.0 11.0 0.00 0.00 0.00 70 1012.4
20260831211805 76 245 4.0 13.0 0.00 0.00 0.00 70 1012.4
20260831211259 77 236 8.0 13.0 0.00 0.00 0.00 71 1012.4
20260831210753 76 257 7.0 13.0 0.00 0.00 0.00 70 1012.4
20260831210246 76 234 8.0 13.0 0.00 0.00 0.00 72 1012.4
20260831205233 76 224 9.0 14.0 0.00 0.00 0.00 72 1012.4
20260831204727 76 210 6.0 14.0 0.00 0.00 0.00 72 1012.4
20260831204219 75 195 10.0 14.0 0.00 0.00 0.00 72 1012.4
20260831203713 75 269 10.0 15.0 0.00 0.00 0.00 72 1012.4
20260831203207 76 225 11.0 15.0 0.00 0.00 0.00 72 1012.4
20260831201140 76 212 7.0 14.0 0.00 0.00 0.00 71 1012.4
20260831200634 76 242 6.0 14.0 0.00 0.00 0.00 71 1012.4
20260831195114 76 261 7.0 13.0 0.00 0.00 0.00 71 1012.8
20260831194608 76 248 5.0 13.0 0.00 0.00 0.00 71 1012.8
20260831194102 76 322 6.0 13.0 0.00 0.00 0.00 72 1012.8
20260831193554 77 250 3.0 10.0 0.00 0.00 0.00 70 1012.8
20260831192542 76 249 9.0 11.0 0.00 0.00 0.00 71 1012.8
20260831192035 76 292 7.0 11.0 0.00 0.00 0.00 72 1012.8
20260831191529 76 234 8.0 10.0 0.00 0.00 0.00 73 1013.1
20260831190516 76 246 7.0 11.0 0.00 0.00 0.00 73 1013.1
20260831190009 76 233 7.0 13.0 0.00 0.00 0.00 72 1013.1
20260831185502 75 229 5.0 14.0 0.00 0.00 0.00 74 1012.8
20260831184956 75 222 7.0 14.0 0.00 0.00 0.00 75 1013.1
20260831184450 75 244 5.0 9.0 0.00 0.00 0.00 74 1012.8
20260831183943 75 215 5.0 13.0 0.00 0.00 0.00 75 1012.8
20260831183437 75 191 7.0 13.0 0.00 0.00 0.00 73 1013.1
20260831182930 75 228 8.0 9.0 0.00 0.00 0.00 74 1013.1
20260831181917 75 191 8.0 11.0 0.00 0.00 0.00 74 1013.1
20260831181410 75 252 9.0 11.0 0.00 0.00 0.00 73 1012.8
20260831180904 75 227 6.0 13.0 0.00 0.00 0.00 74 1013.1
20260831180357 75 207 4.0 13.0 0.00 0.00 0.00 73 1013.1
20260831175851 75 265 3.0 8.0 0.00 0.00 0.00 74 1013.1
20260831175345 75 281 7.0 8.0 0.00 0.00 0.00 74 1013.1
20260831174837 75 244 3.0 8.0 0.00 0.00 0.00 74 1013.1
20260831174331 75 223 2.0 9.0 0.00 0.00 0.00 74 1013.1
20260831173825 76 255 7.0 9.0 0.00 0.00 0.00 73 1013.1
20260831173319 75 310 2.0 9.0 0.00 0.00 0.00 73 1013.1
20260831172811 75 255 3.0 9.0 0.00 0.00 0.00 75 1013.1
20260831172306 74 236 3.0 13.0 0.00 0.00 0.00 75 1013.1
20260831171759 74 264 2.0 13.0 0.00 0.00 0.00 76 1013.1
20260831171252 74 222 6.0 10.0 0.00 0.00 0.00 75 1012.8
20260831170745 74 257 7.0 10.0 0.00 0.00 0.00 76 1013.1
20260831165733 74 201 6.0 9.0 0.00 0.00 0.00 76 1012.8
20260831165226 74 240 5.0 10.0 0.00 0.00 0.00 75 1012.8
20260831164719 76 234 9.0 10.0 0.00 0.00 0.00 71 1012.8
20260831164214 75 316 1.0 4.0 0.00 0.00 0.00 72 1012.8
20260831163707 75 245 1.0 9.0 0.00 0.00 0.00 72 1012.4
20260831163159 75 185 3.0 9.0 0.00 0.00 0.00 72 1012.8
20260831162653 75 207 3.0 6.0 0.00 0.00 0.00 72 1012.4
20260831162147 74 187 4.0 8.0 0.00 0.00 0.00 72 1012.4
20260831161640 74 182 5.0 8.0 0.00 0.00 0.00 72 1012.4
20260831161134 74 169 4.0 7.0 0.00 0.00 0.00 71 1012.4
20260831160627 75 173 4.0 7.0 0.00 0.00 0.00 70 1012.4
20260831160121 75 219 2.0 3.0 0.00 0.00 0.00 70 1012.4
20260831155615 74 53 2.0 6.0 0.00 0.00 0.00 72 1012.4
20260831155108 75 148 4.0 6.0 0.00 0.00 0.00 71 1012.4
20260831154055 75 111 2.0 4.0 0.00 0.00 0.00 71 1012.4
20260831153548 74 64 2.0 4.0 0.00 0.00 0.00 71 1012.4
20260831152536 74 123 2.0 4.0 0.00 0.00 0.00 73 1012.4
20260831152029 73 220 1.0 2.0 0.00 0.00 0.00 74 1012.4
20260831151523 73 192 2.0 2.0 0.00 0.00 0.00 75 1012.4
20260831150509 71 327 0.0 2.0 0.00 0.00 0.00 77 1012.4
20260831150003 71 327 1.0 1.0 0.00 0.00 0.00 78 1012.1
20260831145456 70 327 0.0 1.0 0.00 0.00 0.00 79 1012.4
20260831144950 69 327 1.0 2.0 0.00 0.00 0.00 80 1012.1
20260831143937 68 327 1.0 1.0 0.00 0.00 0.00 82 1012.1
20260831143430 68 327 1.0 2.0 0.00 0.00 0.00 83 1012.1
20260831142923 67 327 1.0 2.0 0.00 0.00 0.00 83 1012.1
20260831141911 66 327 1.0 2.0 0.00 0.00 0.00 84 1011.8
20260831141404 66 327 0.0 1.0 0.00 0.00 0.00 85 1011.8
20260831140858 66 327 0.0 1.0 0.00 0.00 0.00 85 1011.8
20260831135844 65 327 0.0 1.0 0.00 0.00 0.00 85 1011.4
20260831135338 65 327 0.0 1.0 0.00 0.00 0.00 85 1011.8
20260831134832 65 326 0.0 1.0 0.00 0.00 0.00 85 1011.4
20260831134326 65 326 1.0 1.0 0.00 0.00 0.00 85 1011.4
20260831133819 65 321 0.0 1.0 0.00 0.00 0.00 85 1011.4
20260831132806 65 321 0.0 1.0 0.00 0.00 0.00 85 1011.1
20260831132259 65 321 1.0 2.0 0.00 0.00 0.00 85 1011.1
20260831131753 65 322 1.0 3.0 0.00 0.00 0.00 85 1011.4
20260831131247 65 329 1.0 3.0 0.00 0.00 0.00 85 1011.4
20260831130740 65 316 1.0 3.0 0.00 0.00 0.00 85 1011.1
20260831130233 65 325 1.0 3.0 0.00 0.00 0.00 85 1011.1
20260831125727 65 325 1.0 2.0 0.00 0.00 0.00 85 1011.1
20260831125220 65 319 1.0 3.0 0.00 0.00 0.00 85 1011.1
20260831124714 65 337 2.0 3.0 0.00 0.00 0.00 85 1011.1
20260831124207 65 333 1.0 3.0 0.00 0.00 0.00 85 1011.1
20260831123701 65 325 1.0 3.0 0.00 0.00 0.00 85 1011.1
20260831123154 65 313 2.0 3.0 0.00 0.00 0.00 85 1011.1
20260831122648 66 327 1.0 2.0 0.00 0.00 0.00 85 1011.1
20260831122142 66 317 1.0 2.0 0.00 0.00 0.00 85 1011.1
20260831121128 66 334 2.0 2.0 0.00 0.00 0.00 85 1011.1
20260831120622 66 314 0.0 2.0 0.00 0.00 0.00 85 1011.1
20260831120116 66 320 1.0 2.0 0.00 0.00 0.00 85 1011.1
20260831115104 66 331 2.0 3.0 0.00 0.00 0.00 85 1011.1
20260831113543 67 310 0.0 2.0 0.00 0.00 0.00 84 1011.1
20260831113036 67 318 1.0 2.0 0.00 0.00 0.00 85 1011.1
20260831112530 67 324 1.0 1.0 0.00 0.00 0.00 85 1011.1
20260831112024 67 330 1.0 1.0 0.00 0.00 0.00 85 1011.1
20260831111516 67 319 0.0 3.0 0.00 0.00 0.00 85 1011.1
20260831111010 67 308 0.0 3.0 0.00 0.00 0.00 84 1011.1
20260831110504 67 318 2.0 3.0 0.00 0.00 0.00 84 1011.1
20260831105957 67 324 2.0 2.0 0.00 0.00 0.00 84 1011.4